[[{"header":{"parameterUnit":"m.s-1","parameterCategory":1,"la1":30.2991,"la2":30.254,"lo1":-89.0895,"lo2":-89.0444,"dy":0.0017,"dx":0.0017,"nx":28,"ny":28,"refTime":"2023-11-21T09:00:00:Z","depth":0,"parameterNumber":2,"parameterNumberName":"U-component_of_WINDS"},"data":[0,0,0,0,0,0,0,0,0,0,0,0,0,0,0,0,0,0,0,0,0,0,0,0,0,0,0,0,0,0,0,0,0,0,0,0,0,0,0,0,0,0,0,0,0,0,0,0,0,0,0,0,0,0,0,0,0,0,0.9287,0.9282,0,0.8797,0.8791,0.8786,0.8466,0.8464,0.8462,0.846,0.7962,0.7951,0.794,0,0,0,0,0,0,0,0,0,0,0,0,0,0.9953,0.9943,0.9288,0.9282,0.9275,0.8798,0.8791,0.8784,0.8466,0.8464,0.8461,0.8459,0.7966,0.7952,0.7939,0,0,0,0,0,0,0,0,0,0,0,0,0,0.9584,0.9939,0.9289,0.9059,0.9033,0.8799,0.8791,0.8782,0.8467,0.8464,0.8461,0.8458,0.797,0.7954,0.7937,0.7894,0,0,0.7885,0.7877,0,0,0,0,0,0,0,0,0.9605,0.956,0.9099,0.9074,0.9045,0.8689,0.8843,0.8485,0.8468,0.8682,0.846,0.8456,0.8207,0.817,0.8085,0.787,0.7849,0.7883,0.7873,0.7866,0.7861,0,0,0,0,0,0,0,0.9631,0.9579,0.9093,0.9093,0.906,0.8982,0.8926,0.8773,0.8468,0.8663,0.8639,0.8585,0.8192,0.8102,0.8071,0.7842,0.7884,0.7869,0.7858,0.7852,0.7569,0.7571,0,0,0,0,0,0,0.9693,0.9603,0.9109,0.9079,0.9323,0.8973,0.891,0.8807,0.8469,0.8414,0.8588,0.8572,0.8133,0.8091,0.8052,0.798,0.7866,0.785,0.784,0.7566,0.7569,0.7572,0,0,0,0,0,0,0.9708,0.9652,0.9129,0.9334,0.9261,0.8964,0.8851,0.8799,0.8709,0.8412,0.8356,0.8553,0.8129,0.8076,0.7935,0.7958,0.7842,0.7827,0.7563,0.7567,0.7571,0.7837,0,0,0,0,0,0,0.9729,0.9659,0.9638,0.9336,0.9252,0.902,0.8852,0.8791,0.868,0.8654,0.8364,0.8313,0.8122,0.7963,0.7919,0.7933,0.7813,0.756,0.7565,0.757,0.7824,0.7849,0.787,0,0,0,0,0,0.9753,0.9733,0.9639,0.9581,0.9219,0.9021,0.8973,0.8753,0.8683,0.866,0.847,0.8322,0.7964,0.7951,0.7899,0.7908,0.7557,0.7563,0.7569,0.7814,0.7844,0.787,0,0,0,0,0,0,1.0046,0.9689,0.9581,0.9461,0.9274,0.8968,0.8932,0.8792,0.8622,0.8605,0.8341,0.8278,0.8165,0.8021,0.8014,0.785,0.7743,0.7739,0.7947,0.7973,0.7996,0.8033,0.7799,0,0,0,0,0,1.0097,0.9965,0.966,0.9585,0.9496,0.9232,0.9137,0.8984,0.878,0.87,0.8498,0.8308,0.8151,0.8054,0.7894,0.7802,0.7736,0.7783,0.7807,0.7827,0.7827,0.777,0.7788,0.7592,0.7592,0.7592,0,0,1.02,0.9989,0.9922,0.9638,0.9475,0.9346,0.9167,0.9037,0.8939,0.868,0.8534,0.8382,0.8151,0.8036,0.7974,0.7913,0.7866,0.7835,0.7853,0.7841,0.7778,0.7797,0.7814,0.7596,0.7596,0.7595,0,0,1.0322,1.0149,1.0067,0.9908,0.9664,0.9488,0.947,0.9184,0.9072,0.8922,0.8725,0.8606,0.8343,0.8187,0.8073,0.8141,0.7999,0.8096,0.8216,0.8164,0.8179,0.8192,0.8217,0.8229,0.8097,0.8098,0.8098,0,1.0482,1.0278,1.0044,0.9926,0.9808,0.9567,0.9484,0.9341,0.9058,0.8983,0.8918,0.8583,0.8411,0.8257,0.8274,0.8189,0.8161,0.8128,0.8196,0.8206,0.8214,0.8235,0.8245,0.8111,0.811,0.8108,0.8107,0,1.0487,1.035,1.0314,1.0046,0.9924,0.9825,0.9577,0.9482,0.9341,0.9174,0.9026,0.881,0.8604,0.8556,0.8416,0.8382,0.8352,0.8246,0.8133,0.825,0.8266,0.8272,0.813,0.8126,0.8122,0.8118,0,0,1.0778,1.0384,1.0375,1.0252,0.9966,0.9855,0.9746,0.9543,0.9468,0.9282,0.9185,0.8969,0.8868,0.874,0.8582,0.8536,0.8605,0.8434,0.8424,0.8474,0.8556,0.8639,0.8652,0.851,0.851,0.851,0.8576,0,1.0858,1.0648,1.0436,1.0302,1.0174,0.9945,0.985,0.9666,0.9507,0.9376,0.92,0.9052,0.893,0.8852,0.8796,0.8609,0.8618,0.8601,0.8419,0.8415,0.8484,0.866,0.8745,0.8818,0.8581,0.8581,0.8582,0,1.0923,1.0748,1.0602,1.033,1.0268,1.0187,0.9985,0.9862,0.9649,0.9537,0.9396,0.9228,0.9104,0.9007,0.8833,0.8827,0.8739,0.8637,0.8634,0.8609,0.8506,0.864,0.8835,0.8847,0.8589,0.8588,0.8588,0,1.1152,1.0879,1.0757,1.0659,1.0338,1.0287,1.0151,0.9935,0.9828,0.9652,0.958,0.9393,0.9291,0.9151,0.8938,0.8887,0.8789,0.8673,0.8693,0.8699,0.8683,0.8687,0.8868,0.8627,0.8627,0.8627,0.8627,0,1.1263,1.1184,1.0856,1.0781,1.0686,1.0443,1.0356,1.02,1.0011,0.9903,0.9693,0.9597,0.9321,0.9193,0.9025,0.8909,0.8864,0.8771,0.8728,0.879,0.8802,0.8729,0.8719,0.863,0.8629,0.8629,0.8628,0,1.1503,1.128,1.1132,1.0841,1.0767,1.071,1.0461,1.0381,1.0211,1.0078,1.0032,0.9767,0.9605,0.9378,0.9147,0.9035,0.8942,0.8872,0.9014,0.8988,0.9022,0.9022,0.9162,0.9169,0.8927,0.893,0.8932,0,1.1589,1.1522,1.1226,1.1138,1.101,1.0871,1.0761,1.052,1.0414,1.0169,1.0119,0.9941,0.9785,0.9538,0.9325,0.9147,0.9072,0.9134,0.9044,0.911,0.9074,0.9081,0.9074,0.9156,0.916,0.9163,0.9165,0,1.1766,1.166,1.1508,1.1319,1.1193,1.1033,1.0862,1.0803,1.0527,1.0419,1.025,1.0131,0.9895,0.9721,0.9516,0.9377,0.9227,0.9195,0.9191,0.9254,0.9339,0.9294,0.9074,0.9193,0.919,0.9188,0.9187,0.9186,1.193,1.1861,1.1643,1.1482,1.1329,1.1176,1.1086,1.0906,1.0761,1.055,1.0418,1.0257,1.0047,0.9755,0.9625,0.9496,0.9434,0.9428,0.9426,0.9428,0.945,0.936,0.9458,0.9456,0.9455,0.9455,0.9454,0,1.2097,1.1946,1.1801,1.157,1.1444,1.1313,1.1118,1.1022,1.0883,1.07,1.0552,1.036,1.0191,0.9967,0.9782,0.9723,0.9649,0.9683,0.9685,0.9655,0.9515,0.9538,0.9745,0.9745,0.9745,0.9745,0.9745,0.9745,1.217,1.2047,1.1916,1.1716,1.1563,1.1404,1.1305,1.1163,1.1016,1.0811,1.067,1.0524,1.0324,1.0124,0.9965,0.9903,0.9845,0.99,0.9818,0.9691,0.9665,0.964,0.966,0.989,0.989,0.9968,0.9969,0.997]},{"header":{"parameterUnit":"m.s-1","parameterCategory":1,"la1":30.2991,"la2":30.254,"lo1":-89.0895,"lo2":-89.0444,"dy":0.0017,"dx":0.0017,"nx":28,"ny":28,"refTime":"2023-11-21T09:00:00:Z","depth":0,"parameterNumber":3,"parameterNumberName":"V-component_of_WINDS"},"data":[0,0,0,0,0,0,0,0,0,0,0,0,0,0,0,0,0,0,0,0,0,0,0,0,0,0,0,0,0,0,0,0,0,0,0,0,0,0,0,0,0,0,0,0,0,0,0,0,0,0,0,0,0,0,0,0,0,0,7.4319,7.432,0,7.4401,7.4402,7.4403,7.4388,7.4387,7.4385,7.4384,7.4456,7.4459,7.4462,0,0,0,0,0,0,0,0,0,0,0,0,0,7.4137,7.414,7.4319,7.432,7.4322,7.4401,7.4402,7.4403,7.4388,7.4386,7.4385,7.4383,7.4455,7.4459,7.4463,0,0,0,0,0,0,0,0,0,0,0,0,0,7.4217,7.4141,7.4319,7.4324,7.4325,7.4401,7.4402,7.4403,7.4389,7.4386,7.4384,7.4382,7.4454,7.4458,7.4463,7.4536,0,0,7.4478,7.448,0,0,0,0,0,0,0,0,7.4212,7.4223,7.4322,7.4324,7.4325,7.4382,7.4364,7.4447,7.4389,7.4364,7.4384,7.4381,7.4433,7.4439,7.4459,7.4539,7.4542,7.4479,7.4481,7.4484,7.4485,0,0,0,0,0,0,0,7.4207,7.422,7.4351,7.4324,7.4325,7.4317,7.4326,7.438,7.4409,7.4366,7.4365,7.4376,7.4433,7.4454,7.446,7.4543,7.4478,7.4483,7.4486,7.4488,7.4679,7.4681,0,0,0,0,0,0,7.4201,7.4215,7.4349,7.4354,7.4263,7.4322,7.4332,7.4366,7.4408,7.4413,7.4377,7.4375,7.4447,7.4454,7.4463,7.4545,7.4484,7.4488,7.4491,7.4677,7.468,7.4682,0,0,0,0,0,0,7.4198,7.4214,7.4345,7.4284,7.4301,7.4328,7.4365,7.4369,7.439,7.4417,7.4421,7.4395,7.4445,7.4456,7.4517,7.4547,7.449,7.4495,7.4675,7.4678,7.4681,7.4713,0,0,0,0,0,0,7.4192,7.4212,7.4244,7.4285,7.4304,7.4402,7.4368,7.4372,7.44,7.4397,7.4434,7.4438,7.4444,7.4509,7.4521,7.4553,7.4499,7.4672,7.4676,7.468,7.4709,7.4717,7.4724,0,0,0,0,0,7.4186,7.4249,7.4245,7.4262,7.4345,7.4405,7.4415,7.4424,7.4402,7.4431,7.4448,7.4437,7.4543,7.4516,7.4529,7.4563,7.467,7.4675,7.468,7.4706,7.4715,7.4723,0,0,0,0,0,0,7.4207,7.4254,7.4251,7.433,7.4364,7.4402,7.4439,7.4435,7.4472,7.4467,7.4474,7.4482,7.4543,7.4559,7.4529,7.4631,7.4603,7.461,7.4618,7.4627,7.4634,7.4627,7.4503,0,0,0,0,0,7.4222,7.4271,7.4308,7.4373,7.439,7.4412,7.4438,7.4443,7.4476,7.4489,7.451,7.454,7.4579,7.4605,7.4643,7.4713,7.4717,7.4742,7.4749,7.4754,7.4759,7.4791,7.4801,7.4698,7.4698,7.4698,0,0,7.425,7.4282,7.4312,7.4378,7.4405,7.4449,7.4424,7.4474,7.4506,7.4496,7.4554,7.457,7.4603,7.4667,7.4696,7.4682,7.4789,7.4761,7.4765,7.4767,7.4797,7.4807,7.4815,7.4702,7.4701,7.47,0,0,7.4325,7.4358,7.4413,7.444,7.4481,7.4494,7.4507,7.4546,7.4557,7.4616,7.4608,7.4644,7.4713,7.4735,7.4755,7.4835,7.4824,7.4847,7.4882,7.4913,7.4921,7.4928,7.4951,7.496,7.4853,7.4853,7.4853,0,7.4355,7.4427,7.4441,7.4491,7.4516,7.4513,7.4564,7.4589,7.4639,7.4655,7.464,7.4724,7.4746,7.4812,7.4831,7.485,7.486,7.4841,7.492,7.4927,7.4934,7.4955,7.4964,7.4855,7.4855,7.4855,7.4854,0,7.4457,7.4507,7.4546,7.4596,7.4627,7.4678,7.4694,7.4723,7.4724,7.4737,7.4794,7.4821,7.4861,7.4878,7.4879,7.4943,7.4932,7.4919,7.4889,7.4945,7.4965,7.4974,7.4858,7.4857,7.4857,7.4856,0,0,7.4547,7.4603,7.4616,7.4637,7.468,7.4716,7.4764,7.4807,7.4829,7.4863,7.4899,7.4956,7.4943,7.4966,7.4969,7.4997,7.505,7.4979,7.498,7.4987,7.5115,7.5122,7.5132,7.5045,7.5047,7.5048,7.5111,0,7.4621,7.471,7.4721,7.4798,7.4839,7.4835,7.4875,7.4903,7.4917,7.495,7.4963,7.5002,7.4985,7.4997,7.5025,7.5038,7.5075,7.5035,7.5073,7.5074,7.5061,7.5143,7.5151,7.5208,7.5119,7.5121,7.5122,0,7.472,7.4757,7.4838,7.4872,7.4889,7.4927,7.4964,7.4999,7.5028,7.5035,7.506,7.5059,7.5102,7.5074,7.5131,7.5103,7.512,7.5128,7.513,7.5131,7.5098,7.514,7.5228,7.5234,7.5135,7.5134,7.5133,0,7.4768,7.484,7.4896,7.4914,7.4957,7.4981,7.4999,7.5028,7.5051,7.5083,7.5096,7.5132,7.515,7.5176,7.5182,7.5162,7.5237,7.5211,7.5239,7.5239,7.5252,7.525,7.5338,7.5271,7.527,7.527,7.527,0,7.4847,7.4895,7.4918,7.4952,7.5003,7.5015,7.5064,7.508,7.5105,7.5138,7.5137,7.5167,7.5176,7.5206,7.5212,7.5255,7.5264,7.5267,7.5267,7.5265,7.5264,7.5272,7.5267,7.5273,7.5272,7.5272,7.5271,0,7.4909,7.4928,7.4987,7.5022,7.5032,7.5068,7.5095,7.5125,7.5138,7.5179,7.5189,7.5208,7.5243,7.5254,7.5296,7.5299,7.5348,7.5347,7.5339,7.5337,7.5363,7.5358,7.5456,7.5467,7.5397,7.5397,7.5398,0,7.4955,7.4992,7.5031,7.5054,7.5074,7.5112,7.5135,7.5147,7.5171,7.5206,7.523,7.5266,7.5295,7.5351,7.5365,7.5396,7.5393,7.5425,7.5397,7.5392,7.5387,7.5383,7.5384,7.5428,7.5429,7.5429,7.543,0,7.5033,7.504,7.5076,7.5115,7.5144,7.5174,7.5203,7.5221,7.5236,7.5262,7.5299,7.5322,7.5365,7.5399,7.543,7.5443,7.5437,7.5439,7.5446,7.5442,7.5434,7.5434,7.5347,7.5436,7.5435,7.5435,7.5434,7.5434,7.5085,7.5115,7.5146,7.5185,7.5209,7.5235,7.5264,7.528,7.5313,7.535,7.5355,7.5394,7.5418,7.546,7.5475,7.5503,7.5493,7.5505,7.5507,7.5508,7.5508,7.5434,7.5509,7.5509,7.5509,7.5509,7.5508,0,7.5157,7.5177,7.5214,7.5254,7.5283,7.528,7.531,7.5334,7.5369,7.5394,7.5423,7.5463,7.5495,7.5513,7.5543,7.5562,7.5559,7.5569,7.5565,7.5567,7.5518,7.5506,7.557,7.557,7.557,7.557,7.557,7.557,7.5198,7.5248,7.5258,7.5317,7.5336,7.5376,7.5393,7.5416,7.5435,7.5482,7.5509,7.5521,7.5542,7.5574,7.5601,7.5605,7.5614,7.5624,7.5626,7.5578,7.5571,7.5565,7.5554,7.5627,7.5627,7.5673,7.5673,7.5673]}]]